Regional Weather Roundup
Issued by NWS Upton, NY

Current Version | Previous Version | Graphics & Text | Print | Product List | Glossary Off
Versions: 1 2 3 4 5 6 7 8 9 10 11 12 13 14 15 16 17 18 19 20 21 22 23 24 25 26 27 28 29 30 31 32 33 34 35 36 37 38 39 40 41 42 43 44 45 46 47 48 49 50
704 ASUS41 KOKX 250208 RWROKX REGIONAL WEATHER ROUNDUP NATIONAL WEATHER SERVICE NEW YORK NY 900 PM EST FRI FEB 24 2017 NOTE: "FAIR" INDICATES FEW OR NO CLOUDS BELOW 12,000 FEET WITH NO SIGNIFICANT WEATHER AND/OR OBSTRUCTIONS TO VISIBILITY. NYZ071-072-176-178-NJZ106-104-250300- NEW YORK CITY METRO AREA CITY SKY/WX TMP DP RH WIND PRES REMARKS Central Park CLEAR 60 54 80 VRB5 29.89R Wall St Helipt NOT AVBL LaGuardia APRT PTCLDY 59 55 87 S14 29.86R Kennedy INTL FOG 51 51 100 S16 29.88S VSB 1/2 Breezy Point N/A 45 N/A N/A S12 N/A Newark/Liberty PTCLDY 61 55 81 S8 29.85S Teterboro CLEAR 62 56 80 S10 29.84S $$ NYZ177-179-078>081-250300- LONG ISLAND NEW YORK CITY SKY/WX TMP DP RH WIND PRES REMARKS Jones Beach N/A 46 N/A N/A S6 N/A Matinecock PT NOT AVBL Farmingdale PTCLDY 54 53 97 SW9 29.88F MacArthur/ISP MOCLDY 53 53 100 S10 29.88F Shirley CLEAR 54 54 100 S7 29.90S Westhampton PTCLDY 52 50 93 S9 29.91S Southampton NOT AVBL Bridgehampton NOT AVBL East Hampton N/A 52 50 95 S8 29.90S Montauk N/A 51 51 100 S8 29.92F $$ NYZ052-065-067-250300- HUDSON VALLEY CITY SKY/WX TMP DP RH WIND PRES REMARKS White Plains PTCLDY 57 54 89 S10G16 29.87R Newburgh CLEAR 61 55 82 S8 29.84S Montgomery PTCLDY 59 52 77 SW7 29.81S Poughkeepsie CLEAR 60 52 74 S3 29.82S Albany CLOUDY 64 51 62 S17G25 29.77S $$ NJZ001-105-106-008-010-013-015-019>022-104-250300- NEW JERSEY CITY SKY/WX TMP DP RH WIND PRES REMARKS Newark/Liberty PTCLDY 61 55 81 S8 29.85S Teterboro CLEAR 62 56 80 S10 29.84S Caldwell CLEAR 64 55 72 S9 29.85S Somerville CLEAR 62 54 74 S5 29.83R Linden N/A 62 56 80 CALM 29.86S Sussex PTCLDY 64 53 67 S6 29.83R Andover N/A 62 52 69 S8 29.83R Trenton CLEAR 61 57 87 S9 29.85R Millville MOCLDY 56 56 100 VRB7 29.86S Atlantic City CLEAR 58 55 90 S8 29.87S Wrightstown CLEAR 59 57 91 S9 29.83F Toms River CLOUDY 57 56 96 S6 29.88S Belmar CLEAR 56 55 97 S5 29.88S $$ PAZ047>061-062-071-250300- EASTERN PENNSYLVANIA CITY SKY/WX TMP DP RH WIND PRES REMARKS Philadelphia PTCLDY 62 57 83 S15 29.84F Allentown CLEAR 64 54 69 S9 29.82R Scranton CLOUDY 64 51 62 S9 29.78S $$ CTZ002-004>006-009-010-012-RIZ004-006-007-MAZ004-011-015-250300- SOUTHERN NEW ENGLAND IN CT CITY SKY/WX TMP DP RH WIND PRES REMARKS Bradley INTL PTCLDY 57 52 83 S10 29.87S Hartford PTCLDY 56 53 90 S8 29.88R Danbury CLEAR 58 53 84 S9G18 29.87S Wtrbury/Oxford MOCLDY 55 50 82 S8 29.89S Bridgeport CLOUDY 52 49 89 S6 29.89R Meriden CLOUDY 56 52 86 S9 29.88F New Haven MOCLDY 47 46 97 NE5 29.90R FOG Chester CLOUDY 54 54 100 S6G12 29.90S Groton FOG 49 48 97 CALM 29.90F VSB 1/4 Wilimantic PTCLDY 57 55 93 S5 29.90S IN RI CITY SKY/WX TMP DP RH WIND PRES REMARKS Providence CLOUDY 50 48 93 S8 29.91F FOG Block Island FOG 49 49 100 S12 29.92F VSB 1/4 Westerly CLOUDY 51 47 86 CALM 29.92F FOG IN MA CITY SKY/WX TMP DP RH WIND PRES REMARKS Boston PTCLDY 56 53 90 S13 29.89S Worcester PTCLDY 55 51 86 S10 29.88S Westfield PTCLDY 57 52 83 S7 29.85S Provincetown CLEAR 50 48 93 S14 29.92F Nantucket CLEAR 47 45 93 S10 29.96F $$ ANZ330-335-338-340-345-350-353-355-250300- COASTAL MARINE OBSERVATIONS STATION/POSITION TIME SKY/WX TEMP WIND PRES VSBY WAVE AIR SEA DIR/SP/G HT/PER (UTC) (F) (DEG/KT/KT) (MB) (MI) (FT/S) NY HARB ENTRANCE 0050 48 44 180/ 14/ 16 1011.4 3/10 20 S FIRE ISLAND 0150 49 44 170/ 10/ 12 1011.9 3/11 GREAT SOUTH BAY NOT AVBL 23 SSW MONTAUK P 0050 49 44 1013.6 3/11 15 E BARNEGAT LI 0130 44 N/A 3/12 HUDSON CANYON 0050 47 1013.3 4/11 KINGS POINT 0142 54 42 1011.1 EXECUTION ROCKS NOT AVBL CENTRAL LI SOUND 0115 47 190/ 14/ 14 N/A EASTERN LI SOUND NOT AVBL ROBBINS REEF 0142 54 170/ 14/ 15 1011.3 $$ >>>>>>>>>>>>>>>>>>>>>>>>>>>> KEY <<<<<<<<<<<<<<<<<<<<<<<<<<< > < > SKY/WX - Sky Condition/Present Weather < > TMP - Temperature in Fahrenheit < > DP - Dew Point in Fahrenheit < > RH - Relative Humidity in Percent < > WIND - Direction (from) and Speed in MPH < > PRES - Mean Sea Level Pressure (inches of Hg) < > WCI - Wind Chill Index < > VSB - VISIBILITY IN MILES < > HX - HEAT INDEX < > TC - TEMPERATURE IN CELSIUS < > VRB - VARIABLE WIND DIRECTION < > < >>>>>>>>>>>>>>>>>>>>>>>>>>>> KEY <<<<<<<<<<<<<<<<<<<<<<<<<<<

USA.gov is the U.S. government's official web portal to all federal, state and local government web resources and services.